Time,TemperatureF,DewpointF,PressureIn,WindDirection,WindDirectionDegrees,WindSpeedMPH,WindSpeedGustMPH,Humidity,HourlyPrecipIn,Conditions,Clouds,dailyrainin,SoftwareType,DateUTC
2013-02-23 00:03:00,49.0,39.1,30.03,SW,225,2.6,9.2,68,0.00,,,0.00,WSDL version 420,2013-02-23 08:03:00,
2013-02-23 00:08:00,48.9,38.8,30.03,SSW,210,2.3,9.2,68,0.00,,,0.00,WSDL version 420,2013-02-23 08:08:00,
2013-02-23 00:13:00,48.8,38.7,30.03,SW,215,3.6,5.8,68,0.00,,,0.00,WSDL version 420,2013-02-23 08:13:00,
2013-02-23 00:18:00,48.7,38.7,30.00,SW,225,4.2,7.4,68,0.00,,,0.00,WSDL version 420,2013-02-23 08:18:00,
2013-02-23 00:23:00,48.7,38.7,30.00,SW,228,3.5,7.4,68,0.00,,,0.00,WSDL version 420,2013-02-23 08:23:00,
2013-02-23 00:28:00,48.7,38.6,30.00,SSW,209,3.4,5.8,68,0.00,,,0.00,WSDL version 420,2013-02-23 08:28:00,
2013-02-23 00:33:00,48.6,38.5,30.00,SW,215,3.6,8.7,68,0.00,,,0.00,WSDL version 420,2013-02-23 08:33:00,
2013-02-23 00:38:00,48.6,38.3,30.00,SW,222,2.2,8.7,67,0.00,,,0.00,WSDL version 420,2013-02-23 08:38:00,
2013-02-23 00:43:00,48.4,38.0,30.00,SW,223,4.0,6.0,67,0.00,,,0.00,WSDL version 420,2013-02-23 08:43:00,
2013-02-23 00:48:00,48.6,37.9,30.00,SW,222,4.6,8.7,66,0.00,,,0.00,WSDL version 420,2013-02-23 08:48:00,
2013-02-23 00:53:00,48.6,37.7,30.00,SW,228,4.9,8.7,66,0.00,,,0.00,WSDL version 420,2013-02-23 08:53:00,
2013-02-23 00:58:00,48.4,37.6,30.00,SSW,208,2.4,6.5,66,0.00,,,0.00,WSDL version 420,2013-02-23 08:58:00,
2013-02-23 01:03:00,48.4,37.6,30.00,SSW,209,3.2,7.4,66,0.00,,,0.00,WSDL version 420,2013-02-23 09:03:00,
2013-02-23 01:08:00,48.3,37.5,30.00,SW,223,2.5,7.4,66,0.00,,,0.00,WSDL version 420,2013-02-23 09:08:00,
2013-02-23 01:13:00,48.2,37.5,30.00,SW,218,2.3,5.8,67,0.00,,,0.00,WSDL version 420,2013-02-23 09:13:00,
2013-02-23 01:18:00,48.2,37.8,30.00,SW,220,2.4,7.4,68,0.00,,,0.00,WSDL version 420,2013-02-23 09:18:00,
2013-02-23 01:23:00,48.2,38.4,30.00,SW,219,3.9,7.4,69,0.00,,,0.00,WSDL version 420,2013-02-23 09:23:00,
2013-02-23 01:28:00,48.2,38.9,30.00,SSW,203,2.7,5.6,70,0.00,,,0.00,WSDL version 420,2013-02-23 09:28:00,
2013-02-23 01:33:00,48.1,38.9,30.00,SW,228,0.8,4.7,71,0.00,,,0.00,WSDL version 420,2013-02-23 09:33:00,
2013-02-23 01:38:00,48.0,39.1,30.00,WSW,245,2.9,5.4,72,0.00,,,0.00,WSDL version 420,2013-02-23 09:38:00,
2013-02-23 01:43:00,48.1,40.0,30.00,WSW,248,3.3,5.8,74,0.00,,,0.00,WSDL version 420,2013-02-23 09:43:00,
2013-02-23 01:48:00,48.0,40.1,30.00,SW,214,2.7,5.8,74,0.00,,,0.00,WSDL version 420,2013-02-23 09:48:00,
2013-02-23 01:53:00,48.0,40.2,30.00,WSW,245,3.6,6.0,75,0.00,,,0.00,WSDL version 420,2013-02-23 09:53:00,
2013-02-23 01:58:00,48.0,40.9,30.00,WSW,244,3.0,6.0,77,0.00,,,0.00,WSDL version 420,2013-02-23 09:58:00,
2013-02-23 02:03:00,47.9,41.0,30.00,West,260,2.5,4.3,77,0.00,,,0.00,WSDL version 420,2013-02-23 10:03:00,
2013-02-23 02:08:00,47.9,41.6,30.00,SSW,208,2.7,4.9,79,0.00,,,0.00,WSDL version 420,2013-02-23 10:08:00,
2013-02-23 02:13:00,47.9,41.9,30.00,SW,219,2.8,4.9,80,0.00,,,0.00,WSDL version 420,2013-02-23 10:13:00,
2013-02-23 02:18:00,48.0,42.8,30.00,SW,235,2.8,5.4,82,0.00,,,0.00,WSDL version 420,2013-02-23 10:18:00,
2013-02-23 02:23:00,48.2,43.0,30.00,SSW,211,3.2,6.0,82,0.00,,,0.00,WSDL version 420,2013-02-23 10:23:00,
2013-02-23 02:28:00,48.3,43.2,30.00,SSW,205,2.9,6.0,82,0.00,,,0.00,WSDL version 420,2013-02-23 10:28:00,
2013-02-23 02:33:00,48.4,43.2,30.00,SSW,194,1.6,5.6,82,0.00,,,0.00,WSDL version 420,2013-02-23 10:33:00,
2013-02-23 02:38:00,48.4,42.9,30.00,SSW,195,1.9,3.4,81,0.00,,,0.00,WSDL version 420,2013-02-23 10:38:00,
2013-02-23 02:43:00,48.4,42.9,30.00,SSW,205,1.6,3.6,81,0.00,,,0.00,WSDL version 420,2013-02-23 10:43:00,
2013-02-23 02:48:00,48.5,43.1,30.00,SSW,205,2.1,3.6,81,0.00,,,0.00,WSDL version 420,2013-02-23 10:48:00,
2013-02-23 02:53:00,48.6,43.4,30.00,South,173,1.3,3.1,82,0.00,,,0.00,WSDL version 420,2013-02-23 10:53:00,
2013-02-23 02:58:00,48.6,43.4,30.00,SSW,200,1.9,4.7,82,0.00,,,0.00,WSDL version 420,2013-02-23 10:58:00,
2013-02-23 03:03:00,48.7,44.0,29.97,SW,218,3.5,6.3,84,0.00,,,0.00,WSDL version 420,2013-02-23 11:03:00,
2013-02-23 03:08:00,48.8,44.4,29.97,SSE,155,1.7,6.3,84,0.00,,,0.00,WSDL version 420,2013-02-23 11:08:00,
2013-02-23 03:13:00,49.0,44.8,29.97,SW,228,3.3,4.3,86,0.00,,,0.00,WSDL version 420,2013-02-23 11:13:00,
2013-02-23 03:18:00,49.2,45.1,30.00,South,180,2.6,4.3,87,0.00,,,0.00,WSDL version 420,2013-02-23 11:18:00,
2013-02-23 03:23:00,49.4,45.6,30.00,SW,219,2.5,4.7,87,0.00,,,0.00,WSDL version 420,2013-02-23 11:23:00,
2013-02-23 03:28:00,49.6,45.8,30.00,SSW,193,2.6,5.4,87,0.00,,,0.00,WSDL version 420,2013-02-23 11:28:00,
2013-02-23 03:33:00,49.8,46.0,29.97,WSW,257,2.0,5.4,87,0.00,,,0.00,WSDL version 420,2013-02-23 11:33:00,
2013-02-23 03:38:00,50.1,46.1,29.97,SSW,208,2.5,5.4,86,0.00,,,0.00,WSDL version 420,2013-02-23 11:38:00,
2013-02-23 03:43:00,50.2,46.0,29.97,WNW,283,3.0,5.4,86,0.00,,,0.00,WSDL version 420,2013-02-23 11:43:00,
2013-02-23 03:48:00,50.2,46.0,29.97,SSW,205,1.9,4.0,86,0.00,,,0.00,WSDL version 420,2013-02-23 11:48:00,
2013-02-23 03:53:00,50.2,46.0,29.97,SSW,200,2.4,4.7,86,0.00,,,0.00,WSDL version 420,2013-02-23 11:53:00,
2013-02-23 03:58:00,50.4,46.2,29.97,SW,219,3.6,6.7,86,0.00,,,0.00,WSDL version 420,2013-02-23 11:58:00,
2013-02-23 04:03:00,50.4,46.1,29.97,WSW,245,4.6,8.7,84,0.00,,,0.00,WSDL version 420,2013-02-23 12:03:00,
2013-02-23 04:08:00,50.3,45.8,29.97,WNW,296,4.8,8.7,84,0.00,,,0.00,WSDL version 420,2013-02-23 12:08:00,
2013-02-23 04:13:00,50.2,45.7,29.97,WNW,300,3.7,8.1,84,0.00,,,0.00,WSDL version 420,2013-02-23 12:13:00,
2013-02-23 04:18:00,50.0,45.5,29.97,NW,318,4.0,6.5,84,0.00,,,0.00,WSDL version 420,2013-02-23 12:18:00,
2013-02-23 04:23:00,49.8,45.1,29.97,WNW,300,3.9,7.4,83,0.00,,,0.00,WSDL version 420,2013-02-23 12:23:00,
2013-02-23 04:28:00,49.5,44.4,29.97,WNW,301,5.6,9.6,82,0.00,,,0.00,WSDL version 420,2013-02-23 12:28:00,
2013-02-23 04:33:00,49.1,43.8,29.97,WNW,293,3.3,9.6,81,0.00,,,0.00,WSDL version 420,2013-02-23 12:33:00,
2013-02-23 04:38:00,48.9,43.3,29.97,WNW,293,4.9,8.7,80,0.00,,,0.00,WSDL version 420,2013-02-23 12:38:00,
2013-02-23 04:43:00,48.8,42.9,29.97,WNW,293,3.4,8.7,80,0.00,,,0.00,WSDL version 420,2013-02-23 12:43:00,
2013-02-23 04:48:00,48.6,42.7,29.97,NW,309,3.7,7.4,80,0.00,,,0.00,WSDL version 420,2013-02-23 12:48:00,
2013-02-23 04:53:00,48.4,42.2,29.97,NW,318,4.1,7.4,79,0.00,,,0.00,WSDL version 420,2013-02-23 12:53:00,
2013-02-23 04:58:00,48.2,41.8,29.97,NW,307,5.0,6.9,78,0.00,,,0.00,WSDL version 420,2013-02-23 12:58:00,
2013-02-23 05:08:00,48.1,41.0,29.97,NW,309,4.6,8.7,76,0.00,,,0.00,WSDL version 420,2013-02-23 13:08:00,
2013-02-23 05:13:00,47.9,40.7,29.97,North,11,2.2,6.5,76,0.00,,,0.00,WSDL version 420,2013-02-23 13:13:00,
2013-02-23 05:18:00,47.7,40.5,29.97,WNW,298,3.4,5.4,76,0.00,,,0.00,WSDL version 420,2013-02-23 13:18:00,
2013-02-23 05:23:00,47.6,40.4,29.97,WNW,284,0.8,4.7,76,0.00,,,0.00,WSDL version 420,2013-02-23 13:23:00,
2013-02-23 05:28:00,47.3,40.2,29.97,SSE,155,1.0,4.7,76,0.00,,,0.00,WSDL version 420,2013-02-23 13:28:00,
2013-02-23 05:33:00,47.0,39.7,29.97,SSW,212,2.6,4.0,76,0.00,,,0.00,WSDL version 420,2013-02-23 13:33:00,
2013-02-23 05:38:00,46.9,40.2,29.97,SW,233,2.6,4.0,77,0.00,,,0.00,WSDL version 420,2013-02-23 13:38:00,
2013-02-23 05:43:00,46.8,40.3,29.97,SW,228,3.0,4.3,79,0.00,,,0.00,WSDL version 420,2013-02-23 13:43:00,
2013-02-23 05:48:00,46.6,40.3,29.97,SW,215,2.2,4.3,79,0.00,,,0.00,WSDL version 420,2013-02-23 13:48:00,
2013-02-23 05:53:00,46.5,40.3,29.97,SSW,203,1.6,3.6,79,0.00,,,0.00,WSDL version 420,2013-02-23 13:53:00,
2013-02-23 05:58:00,46.3,40.3,29.97,SW,217,2.2,3.6,80,0.00,,,0.00,WSDL version 420,2013-02-23 13:58:00,
2013-02-23 06:03:00,46.2,40.4,30.00,SSW,197,1.1,4.3,80,0.00,,,0.00,WSDL version 420,2013-02-23 14:03:00,
2013-02-23 06:08:00,46.0,40.3,30.00,WNW,287,1.1,4.3,81,0.00,,,0.00,WSDL version 420,2013-02-23 14:08:00,
2013-02-23 06:13:00,45.9,40.4,30.00,NW,304,3.1,4.3,81,0.00,,,0.00,WSDL version 420,2013-02-23 14:13:00,
2013-02-23 06:18:00,45.9,40.5,30.00,WNW,286,3.1,4.3,82,0.00,,,0.00,WSDL version 420,2013-02-23 14:18:00,
2013-02-23 06:23:00,46.1,41.1,30.00,WNW,285,3.3,5.6,82,0.00,,,0.00,WSDL version 420,2013-02-23 14:23:00,
2013-02-23 06:28:00,46.1,41.0,30.00,WNW,298,3.5,7.8,82,0.00,,,0.00,WSDL version 420,2013-02-23 14:28:00,
2013-02-23 06:33:00,46.2,41.2,30.00,West,270,2.7,7.8,82,0.00,,,0.00,WSDL version 420,2013-02-23 14:33:00,
2013-02-23 06:38:00,46.1,41.0,30.00,WNW,295,2.5,4.3,82,0.00,,,0.00,WSDL version 420,2013-02-23 14:38:00,
2013-02-23 06:43:00,45.9,40.7,30.00,West,281,1.5,4.7,81,0.00,,,0.00,WSDL version 420,2013-02-23 14:43:00,
2013-02-23 06:48:00,45.8,40.4,30.00,West,278,2.2,4.7,81,0.00,,,0.00,WSDL version 420,2013-02-23 14:48:00,
2013-02-23 06:53:00,45.7,40.2,30.00,WNW,285,1.2,4.3,81,0.00,,,0.00,WSDL version 420,2013-02-23 14:53:00,
2013-02-23 06:58:00,45.5,40.1,30.00,West,278,2.4,4.0,81,0.00,,,0.00,WSDL version 420,2013-02-23 14:58:00,
2013-02-23 07:03:00,45.5,40.1,30.00,WNW,300,2.4,5.6,81,0.00,,,0.00,WSDL version 420,2013-02-23 15:03:00,
2013-02-23 07:08:00,45.6,40.4,30.00,NNW,330,3.1,5.6,82,0.00,,,0.00,WSDL version 420,2013-02-23 15:08:00,
2013-02-23 07:13:00,46.0,40.7,30.00,NW,321,2.3,4.9,81,0.00,,,0.00,WSDL version 420,2013-02-23 15:13:00,
2013-02-23 07:18:00,46.0,40.2,30.03,NNW,328,2.1,4.9,80,0.00,,,0.00,WSDL version 420,2013-02-23 15:18:00,
2013-02-23 07:23:00,46.0,40.2,30.03,North,354,3.3,4.0,80,0.00,,,0.00,WSDL version 420,2013-02-23 15:23:00,
2013-02-23 07:28:00,46.1,40.2,30.03,NNW,343,3.1,4.0,79,0.00,,,0.00,WSDL version 420,2013-02-23 15:28:00,
2013-02-23 07:33:00,46.3,39.8,30.03,NNW,346,4.4,5.6,77,0.00,,,0.00,WSDL version 420,2013-02-23 15:33:00,
2013-02-23 07:38:00,46.6,39.1,30.03,North,349,4.0,6.5,73,0.00,,,0.00,WSDL version 420,2013-02-23 15:38:00,
2013-02-23 07:43:00,46.6,38.2,30.03,NNW,346,4.4,6.5,71,0.00,,,0.00,WSDL version 420,2013-02-23 15:43:00,
2013-02-23 07:48:00,46.9,37.7,30.03,NNE,13,3.2,6.5,71,0.00,,,0.00,WSDL version 420,2013-02-23 15:48:00,
2013-02-23 07:53:00,47.1,37.8,30.03,North,350,4.0,7.2,68,0.00,,,0.00,WSDL version 420,2013-02-23 15:53:00,
2013-02-23 07:58:00,47.2,36.5,30.03,NNW,343,4.5,7.6,66,0.00,,,0.00,WSDL version 420,2013-02-23 15:58:00,
2013-02-23 08:03:00,47.2,36.0,30.03,NW,318,4.4,9.4,65,0.00,,,0.00,WSDL version 420,2013-02-23 16:03:00,
2013-02-23 08:08:00,47.1,36.0,30.03,NW,318,5.5,9.4,65,0.00,,,0.00,WSDL version 420,2013-02-23 16:08:00,
2013-02-23 08:13:00,47.0,36.0,30.03,NNW,335,5.1,10.5,65,0.00,,,0.00,WSDL version 420,2013-02-23 16:13:00,
2013-02-23 08:18:00,46.9,35.6,30.06,NNW,333,4.1,10.5,63,0.00,,,0.00,WSDL version 420,2013-02-23 16:18:00,
2013-02-23 08:23:00,47.6,36.2,30.06,NW,318,3.8,7.4,65,0.00,,,0.00,WSDL version 420,2013-02-23 16:23:00,
2013-02-23 08:28:00,48.7,36.4,30.06,North,350,3.8,6.5,62,0.00,,,0.00,WSDL version 420,2013-02-23 16:28:00,
2013-02-23 08:33:00,49.4,36.2,30.06,NNE,20,3.7,7.6,59,0.00,,,0.00,WSDL version 420,2013-02-23 16:33:00,
2013-02-23 08:38:00,50.0,35.1,30.06,NW,315,4.5,8.7,54,0.00,,,0.00,WSDL version 420,2013-02-23 16:38:00,
2013-02-23 08:43:00,50.1,33.9,30.06,NNW,338,3.2,8.7,53,0.00,,,0.00,WSDL version 420,2013-02-23 16:43:00,
2013-02-23 08:48:00,50.5,33.5,30.06,NNW,328,3.4,8.7,52,0.00,,,0.00,WSDL version 420,2013-02-23 16:48:00,
2013-02-23 08:53:00,50.8,32.7,30.06,WNW,298,4.5,10.3,49,0.00,,,0.00,WSDL version 420,2013-02-23 16:53:00,
2013-02-23 08:58:00,50.8,32.2,30.06,North,350,3.3,10.3,49,0.00,,,0.00,WSDL version 420,2013-02-23 16:58:00,
2013-02-23 09:03:00,51.2,32.6,30.06,North,350,3.6,5.6,48,0.00,,,0.00,WSDL version 420,2013-02-23 17:03:00,
2013-02-23 09:08:00,51.0,31.8,30.06,North,353,3.6,6.0,48,0.00,,,0.00,WSDL version 420,2013-02-23 17:08:00,
2013-02-23 09:13:00,50.9,31.9,30.06,North,353,4.7,7.6,48,0.00,,,0.00,WSDL version 420,2013-02-23 17:13:00,
2013-02-23 09:18:00,50.8,31.8,30.06,NNW,346,5.5,10.7,47,0.00,,,0.00,WSDL version 420,2013-02-23 17:18:00,
2013-02-23 09:23:00,50.5,31.4,30.06,NNW,333,4.1,10.7,48,0.00,,,0.00,WSDL version 420,2013-02-23 17:23:00,
2013-02-23 09:28:00,50.9,32.1,30.06,NW,323,4.3,7.6,49,0.00,,,0.00,WSDL version 420,2013-02-23 17:28:00,
2013-02-23 09:33:00,51.3,32.1,30.06,NNW,335,5.7,8.1,47,0.00,,,0.00,WSDL version 420,2013-02-23 17:33:00,
2013-02-23 09:38:00,51.4,31.5,30.06,NNW,335,4.2,8.1,46,0.00,,,0.00,WSDL version 420,2013-02-23 17:38:00,
2013-02-23 09:43:00,51.6,31.3,30.06,NW,318,4.6,7.8,45,0.00,,,0.00,WSDL version 420,2013-02-23 17:43:00,
2013-02-23 09:48:00,51.7,31.3,30.06,NNW,330,5.0,7.8,45,0.00,,,0.00,WSDL version 420,2013-02-23 17:48:00,
2013-02-23 09:53:00,51.7,31.1,30.06,NNW,338,3.7,7.4,45,0.00,,,0.00,WSDL version 420,2013-02-23 17:53:00,
2013-02-23 09:58:00,51.7,30.4,30.06,NNW,332,4.5,6.3,44,0.00,,,0.00,WSDL version 420,2013-02-23 17:58:00,
2013-02-23 10:03:00,52.0,30.6,30.03,NNW,329,4.1,8.7,43,0.00,,,0.00,WSDL version 420,2013-02-23 18:03:00,
2013-02-23 10:08:00,52.2,30.6,30.03,NW,325,3.7,8.7,43,0.00,,,0.00,WSDL version 420,2013-02-23 18:08:00,
2013-02-23 10:13:00,52.6,31.0,30.03,NNW,333,3.8,6.5,43,0.00,,,0.00,WSDL version 420,2013-02-23 18:13:00,
2013-02-23 10:18:00,52.9,31.1,30.03,NNW,329,3.7,6.5,43,0.00,,,0.00,WSDL version 420,2013-02-23 18:18:00,
2013-02-23 10:23:00,53.1,30.6,30.03,NNW,332,3.0,7.4,42,0.00,,,0.00,WSDL version 420,2013-02-23 18:23:00,
2013-02-23 10:28:00,53.5,30.6,30.03,NW,326,2.8,7.4,41,0.00,,,0.00,WSDL version 420,2013-02-23 18:28:00,
2013-02-23 10:33:00,53.9,30.5,30.03,NW,326,3.6,6.7,41,0.00,,,0.00,WSDL version 420,2013-02-23 18:33:00,
2013-02-23 10:38:00,54.1,30.2,30.03,NNW,334,3.7,6.7,40,0.00,,,0.00,WSDL version 420,2013-02-23 18:38:00,
2013-02-23 10:43:00,54.4,30.5,30.03,NW,310,3.5,7.2,40,0.00,,,0.00,WSDL version 420,2013-02-23 18:43:00,
2013-02-23 10:48:00,54.8,30.3,30.03,NNW,346,3.1,7.2,39,0.00,,,0.00,WSDL version 420,2013-02-23 18:48:00,
2013-02-23 10:53:00,55.1,30.4,30.03,NW,321,4.0,7.8,38,0.00,,,0.00,WSDL version 420,2013-02-23 18:53:00,
2013-02-23 10:58:00,54.8,29.9,30.03,NW,313,3.9,8.5,39,0.00,,,0.00,WSDL version 420,2013-02-23 18:58:00,
2013-02-23 11:03:00,55.5,30.4,30.03,WNW,287,4.1,8.5,38,0.00,,,0.00,WSDL version 420,2013-02-23 19:03:00,
2013-02-23 11:08:00,55.0,29.8,30.03,NW,312,5.6,7.8,38,0.00,,,0.00,WSDL version 420,2013-02-23 19:08:00,
2013-02-23 11:13:00,55.0,29.9,30.03,NW,315,5.1,8.9,38,0.00,,,0.00,WSDL version 420,2013-02-23 19:13:00,
2013-02-23 11:18:00,55.6,30.4,30.03,NW,323,3.9,8.9,38,0.00,,,0.00,WSDL version 420,2013-02-23 19:18:00,
2013-02-23 11:23:00,55.7,30.3,30.03,NW,310,4.2,5.8,38,0.00,,,0.00,WSDL version 420,2013-02-23 19:23:00,
2013-02-23 11:28:00,55.8,29.9,30.03,NNW,332,3.8,6.0,37,0.00,,,0.00,WSDL version 420,2013-02-23 19:28:00,
2013-02-23 11:33:00,56.1,30.2,30.03,West,275,4.5,6.5,37,0.00,,,0.00,WSDL version 420,2013-02-23 19:33:00,
2013-02-23 11:38:00,56.0,30.1,30.03,NW,318,4.9,7.6,37,0.00,,,0.00,WSDL version 420,2013-02-23 19:38:00,
2013-02-23 11:43:00,56.5,30.6,30.03,NW,310,3.3,7.6,37,0.00,,,0.00,WSDL version 420,2013-02-23 19:43:00,
2013-02-23 11:48:00,57.1,30.7,30.03,NW,315,4.4,6.5,36,0.00,,,0.00,WSDL version 420,2013-02-23 19:48:00,
2013-02-23 11:53:00,56.9,30.6,30.03,NW,318,3.7,7.4,37,0.00,,,0.00,WSDL version 420,2013-02-23 19:53:00,
2013-02-23 11:58:00,57.2,30.5,30.03,WNW,303,3.7,7.4,36,0.00,,,0.00,WSDL version 420,2013-02-23 19:58:00,
2013-02-23 12:03:00,57.4,30.7,30.03,NW,312,4.6,8.5,36,0.00,,,0.00,WSDL version 420,2013-02-23 20:03:00,
2013-02-23 12:08:00,57.6,30.9,30.03,NW,315,4.5,8.5,36,0.00,,,0.00,WSDL version 420,2013-02-23 20:08:00,
2013-02-23 12:13:00,57.5,30.7,30.03,WNW,303,4.7,7.6,36,0.00,,,0.00,WSDL version 420,2013-02-23 20:13:00,
2013-02-23 12:18:00,57.2,30.4,30.00,NW,308,5.6,8.5,36,0.00,,,0.00,WSDL version 420,2013-02-23 20:18:00,
2013-02-23 12:23:00,57.5,30.8,30.00,West,273,4.5,8.5,36,0.00,,,0.00,WSDL version 420,2013-02-23 20:23:00,
2013-02-23 12:28:00,57.5,30.8,30.00,WNW,303,4.5,6.5,36,0.00,,,0.00,WSDL version 420,2013-02-23 20:28:00,
2013-02-23 12:33:00,58.1,31.3,30.00,NNW,338,3.9,6.3,36,0.00,,,0.00,WSDL version 420,2013-02-23 20:33:00,
2013-02-23 12:38:00,58.4,31.6,30.00,WNW,301,4.7,6.3,36,0.00,,,0.00,WSDL version 420,2013-02-23 20:38:00,
2013-02-23 12:43:00,58.0,30.7,30.00,WNW,303,4.3,8.1,35,0.00,,,0.00,WSDL version 420,2013-02-23 20:43:00,
2013-02-23 12:53:00,59.2,31.7,30.00,WNW,295,3.3,8.1,36,0.00,,,0.00,WSDL version 420,2013-02-23 20:53:00,
2013-02-23 12:58:00,58.8,31.4,30.00,NW,307,4.0,7.6,35,0.00,,,0.00,WSDL version 420,2013-02-23 20:58:00,
2013-02-23 13:03:00,58.7,31.2,30.00,NNW,345,3.8,8.7,35,0.00,,,0.00,WSDL version 420,2013-02-23 21:03:00,
2013-02-23 13:08:00,58.2,30.7,30.00,NNW,338,5.4,8.7,35,0.00,,,0.00,WSDL version 420,2013-02-23 21:08:00,
2013-02-23 13:13:00,58.6,31.0,30.00,WNW,301,3.9,8.7,35,0.00,,,0.00,WSDL version 420,2013-02-23 21:13:00,
2013-02-23 13:18:00,58.7,31.2,29.97,NW,313,3.9,7.8,35,0.00,,,0.00,WSDL version 420,2013-02-23 21:18:00,
2013-02-23 13:23:00,58.4,30.9,29.97,WNW,298,5.8,8.1,35,0.00,,,0.00,WSDL version 420,2013-02-23 21:23:00,
2013-02-23 13:28:00,58.7,31.1,29.97,NW,310,4.0,8.1,35,0.00,,,0.00,WSDL version 420,2013-02-23 21:28:00,
2013-02-23 13:33:00,58.5,30.9,29.97,NW,323,4.1,8.5,35,0.00,,,0.00,WSDL version 420,2013-02-23 21:33:00,
2013-02-23 13:38:00,58.9,31.0,29.97,NW,304,4.0,8.5,34,0.00,,,0.00,WSDL version 420,2013-02-23 21:38:00,
2013-02-23 13:43:00,59.0,30.7,29.97,WNW,303,5.0,8.5,34,0.00,,,0.00,WSDL version 420,2013-02-23 21:43:00,
2013-02-23 13:48:00,58.8,31.2,29.97,WNW,295,4.4,8.5,35,0.00,,,0.00,WSDL version 420,2013-02-23 21:48:00,
2013-02-23 13:53:00,58.9,31.2,29.97,NW,310,4.2,7.8,35,0.00,,,0.00,WSDL version 420,2013-02-23 21:53:00,
2013-02-23 13:58:00,59.1,31.0,29.97,NNW,345,4.5,7.4,34,0.00,,,0.00,WSDL version 420,2013-02-23 21:58:00,
2013-02-23 14:03:00,59.0,30.8,29.97,NW,310,4.4,7.2,35,0.00,,,0.00,WSDL version 420,2013-02-23 22:03:00,
2013-02-23 14:08:00,59.1,31.3,29.97,NNW,332,5.4,6.9,35,0.00,,,0.00,WSDL version 420,2013-02-23 22:08:00,
2013-02-23 14:13:00,58.7,31.3,29.97,NW,318,6.3,10.1,36,0.00,,,0.00,WSDL version 420,2013-02-23 22:13:00,
2013-02-23 14:18:00,58.4,31.0,29.97,WNW,293,5.5,10.1,35,0.00,,,0.00,WSDL version 420,2013-02-23 22:18:00,
2013-02-23 14:23:00,58.2,30.7,29.97,NW,315,4.8,8.7,35,0.00,,,0.00,WSDL version 420,2013-02-23 22:23:00,
2013-02-23 14:28:00,58.2,30.7,29.97,WNW,301,5.7,8.5,35,0.00,,,0.00,WSDL version 420,2013-02-23 22:28:00,
2013-02-23 14:33:00,57.9,30.5,29.97,West,273,5.0,8.9,35,0.00,,,0.00,WSDL version 420,2013-02-23 22:33:00,
2013-02-23 14:38:00,58.2,30.7,29.97,WNW,293,5.6,8.9,35,0.00,,,0.00,WSDL version 420,2013-02-23 22:38:00,
2013-02-23 14:43:00,57.8,30.3,29.97,NW,309,5.3,9.2,35,0.00,,,0.00,WSDL version 420,2013-02-23 22:43:00,
2013-02-23 14:48:00,57.9,30.5,29.97,NW,323,5.4,9.2,35,0.00,,,0.00,WSDL version 420,2013-02-23 22:48:00,
2013-02-23 14:53:00,58.1,30.6,29.97,WNW,298,4.5,8.5,35,0.00,,,0.00,WSDL version 420,2013-02-23 22:53:00,
2013-02-23 14:58:00,58.3,30.8,29.97,NW,304,5.1,8.5,35,0.00,,,0.00,WSDL version 420,2013-02-23 22:58:00,
2013-02-23 15:03:00,57.7,30.2,29.97,WNW,302,6.6,10.5,35,0.00,,,0.00,WSDL version 420,2013-02-23 23:03:00,
2013-02-23 15:08:00,57.8,30.6,29.97,NW,304,6.2,10.5,36,0.00,,,0.00,WSDL version 420,2013-02-23 23:08:00,
2013-02-23 15:13:00,57.9,31.0,29.97,WNW,301,4.8,10.7,36,0.00,,,0.00,WSDL version 420,2013-02-23 23:13:00,
2013-02-23 15:18:00,57.7,31.0,29.94,NW,321,4.4,10.7,36,0.00,,,0.00,WSDL version 420,2013-02-23 23:18:00,
2013-02-23 15:23:00,57.6,30.9,29.94,WNW,290,6.4,11.4,36,0.00,,,0.00,WSDL version 420,2013-02-23 23:23:00,
2013-02-23 15:28:00,57.6,30.9,29.94,NE,38,3.8,11.4,37,0.00,,,0.00,WSDL version 420,2013-02-23 23:28:00,
2013-02-23 15:33:00,57.5,31.1,29.94,WNW,287,7.1,11.4,37,0.00,,,0.00,WSDL version 420,2013-02-23 23:33:00,
2013-02-23 15:38:00,57.0,31.0,29.94,NW,308,5.2,11.4,37,0.00,,,0.00,WSDL version 420,2013-02-23 23:38:00,
2013-02-23 15:43:00,56.7,30.8,29.94,NW,304,5.4,13.9,38,0.00,,,0.00,WSDL version 420,2013-02-23 23:43:00,
2013-02-23 15:48:00,57.1,31.3,29.94,NW,325,5.8,13.9,37,0.00,,,0.00,WSDL version 420,2013-02-23 23:48:00,
2013-02-23 15:53:00,56.8,30.9,29.94,NW,304,4.3,9.8,38,0.00,,,0.00,WSDL version 420,2013-02-23 23:53:00,
2013-02-23 15:58:00,56.6,31.0,29.94,NW,308,5.6,9.8,38,0.00,,,0.00,WSDL version 420,2013-02-23 23:58:00,
2013-02-23 16:03:00,56.4,31.1,29.94,WNW,301,5.6,10.5,38,0.00,,,0.00,WSDL version 420,2013-02-24 00:03:00,
2013-02-23 16:08:00,56.3,31.0,29.94,NW,315,5.7,10.5,38,0.00,,,0.00,WSDL version 420,2013-02-24 00:08:00,
2013-02-23 16:13:00,56.4,31.2,29.94,WNW,295,4.3,10.5,38,0.00,,,0.00,WSDL version 420,2013-02-24 00:13:00,
2013-02-23 16:18:00,56.3,31.4,29.94,NW,312,3.9,10.5,38,0.00,,,0.00,WSDL version 420,2013-02-24 00:18:00,
2013-02-23 16:23:00,56.2,31.4,29.94,NNW,330,4.4,6.5,39,0.00,,,0.00,WSDL version 420,2013-02-24 00:23:00,
2013-02-23 16:28:00,56.2,31.5,29.94,WNW,295,4.4,6.5,39,0.00,,,0.00,WSDL version 420,2013-02-24 00:28:00,
2013-02-23 16:33:00,55.8,30.6,29.94,NW,315,5.9,8.7,38,0.00,,,0.00,WSDL version 420,2013-02-24 00:33:00,
2013-02-23 16:38:00,55.2,30.7,29.94,NW,308,5.6,8.7,39,0.00,,,0.00,WSDL version 420,2013-02-24 00:38:00,
2013-02-23 16:43:00,54.9,30.4,29.94,WNW,293,5.3,10.1,39,0.00,,,0.00,WSDL version 420,2013-02-24 00:43:00,
2013-02-23 16:48:00,54.8,31.0,29.94,WNW,290,6.8,12.1,41,0.00,,,0.00,WSDL version 420,2013-02-24 00:48:00,
2013-02-23 16:53:00,54.3,31.2,29.94,WNW,295,8.1,12.1,42,0.00,,,0.00,WSDL version 420,2013-02-24 00:53:00,
2013-02-23 16:58:00,53.9,31.5,29.94,WNW,288,4.3,11.9,43,0.00,,,0.00,WSDL version 420,2013-02-24 00:58:00,
2013-02-23 17:03:00,53.6,31.2,29.94,NW,305,6.4,12.3,43,0.00,,,0.00,WSDL version 420,2013-02-24 01:03:00,
2013-02-23 17:08:00,53.4,31.4,29.94,WNW,298,7.0,12.3,43,0.00,,,0.00,WSDL version 420,2013-02-24 01:08:00,
2013-02-23 17:13:00,53.2,31.3,29.94,NW,305,7.1,11.2,43,0.00,,,0.00,WSDL version 420,2013-02-24 01:13:00,
2013-02-23 17:23:00,52.6,31.4,29.94,WNW,288,4.6,12.1,44,0.00,,,0.00,WSDL version 420,2013-02-24 01:23:00,
2013-02-23 17:28:00,52.4,31.3,29.94,WNW,288,4.9,8.7,45,0.00,,,0.00,WSDL version 420,2013-02-24 01:28:00,
2013-02-23 17:33:00,52.1,31.4,29.94,NW,304,4.2,8.7,45,0.00,,,0.00,WSDL version 420,2013-02-24 01:33:00,
2013-02-23 17:38:00,51.9,31.4,29.94,WNW,295,5.4,7.8,46,0.00,,,0.00,WSDL version 420,2013-02-24 01:38:00,
2013-02-23 17:43:00,51.7,31.6,29.94,WNW,303,4.4,6.7,46,0.00,,,0.00,WSDL version 420,2013-02-24 01:43:00,
2013-02-23 17:48:00,51.6,32.0,29.97,WNW,298,4.5,6.5,47,0.00,,,0.00,WSDL version 420,2013-02-24 01:48:00,
2013-02-23 17:53:00,51.3,32.2,29.97,WNW,290,3.2,6.5,48,0.00,,,0.00,WSDL version 420,2013-02-24 01:53:00,
2013-02-23 17:58:00,51.0,32.5,29.97,NW,308,3.7,6.0,49,0.00,,,0.00,WSDL version 420,2013-02-24 01:58:00,
2013-02-23 18:03:00,50.7,33.0,29.97,WNW,295,4.5,9.8,51,0.00,,,0.00,WSDL version 420,2013-02-24 02:03:00,
2013-02-23 18:08:00,50.5,33.1,29.97,WNW,290,5.3,9.8,51,0.00,,,0.00,WSDL version 420,2013-02-24 02:08:00,
2013-02-23 18:13:00,50.4,33.4,29.97,WNW,298,5.8,9.4,52,0.00,,,0.00,WSDL version 420,2013-02-24 02:13:00,
2013-02-23 18:18:00,50.3,33.4,29.97,WNW,303,4.9,9.4,52,0.00,,,0.00,WSDL version 420,2013-02-24 02:18:00,
2013-02-23 18:23:00,50.2,33.5,29.97,WNW,290,5.0,7.6,52,0.00,,,0.00,WSDL version 420,2013-02-24 02:23:00,
2013-02-23 18:28:00,50.2,33.4,29.97,WNW,285,3.6,7.4,52,0.00,,,0.00,WSDL version 420,2013-02-24 02:28:00,
2013-02-23 18:33:00,50.0,33.2,29.97,WNW,287,3.7,7.2,52,0.00,,,0.00,WSDL version 420,2013-02-24 02:33:00,
2013-02-23 18:38:00,50.0,33.1,29.97,NW,312,4.1,7.4,52,0.00,,,0.00,WSDL version 420,2013-02-24 02:38:00,
2013-02-23 18:43:00,50.0,33.1,29.97,NW,305,4.0,7.4,52,0.00,,,0.00,WSDL version 420,2013-02-24 02:43:00,
2013-02-23 18:49:00,49.9,33.3,29.97,WNW,290,3.4,8.1,54,0.00,,,0.00,WSDL version 420,2013-02-24 02:49:00,
2013-02-23 18:54:00,49.7,33.7,29.97,NW,304,4.3,8.1,54,0.00,,,0.00,WSDL version 420,2013-02-24 02:54:00,
2013-02-23 18:59:00,49.6,33.7,29.97,NW,309,3.0,7.6,54,0.00,,,0.00,WSDL version 420,2013-02-24 02:59:00,
2013-02-23 19:04:00,49.5,33.5,29.97,WNW,293,2.7,7.6,54,0.00,,,0.00,WSDL version 420,2013-02-24 03:04:00,
2013-02-23 19:09:00,49.3,33.8,29.97,WNW,298,4.3,6.5,55,0.00,,,0.00,WSDL version 420,2013-02-24 03:09:00,
2013-02-23 19:14:00,49.1,34.0,29.97,WNW,293,3.8,6.5,56,0.00,,,0.00,WSDL version 420,2013-02-24 03:14:00,
2013-02-23 19:19:00,48.9,33.9,29.97,WNW,293,2.1,4.9,56,0.00,,,0.00,WSDL version 420,2013-02-24 03:19:00,
2013-02-23 19:24:00,48.7,33.6,29.97,NNW,329,2.0,3.6,56,0.00,,,0.00,WSDL version 420,2013-02-24 03:24:00,
2013-02-23 19:34:00,48.6,35.5,29.97,NW,326,3.0,6.3,61,0.00,,,0.00,WSDL version 420,2013-02-24 03:34:00,
2013-02-23 19:39:00,48.7,36.2,29.97,NW,315,3.6,7.6,63,0.00,,,0.00,WSDL version 420,2013-02-24 03:39:00,
2013-02-23 19:44:00,48.7,36.5,29.97,WNW,298,3.7,7.6,62,0.00,,,0.00,WSDL version 420,2013-02-24 03:44:00,
2013-02-23 19:49:00,48.7,36.2,29.97,NW,321,3.7,6.3,62,0.00,,,0.00,WSDL version 420,2013-02-24 03:49:00,
2013-02-23 19:54:00,48.7,36.0,29.97,NNE,14,3.7,6.3,61,0.00,,,0.00,WSDL version 420,2013-02-24 03:54:00,
2013-02-23 19:59:00,48.7,35.9,29.97,NW,309,4.3,9.6,61,0.00,,,0.00,WSDL version 420,2013-02-24 03:59:00,
2013-02-23 20:04:00,48.8,35.8,30.00,NNE,15,4.0,9.6,60,0.00,,,0.00,WSDL version 420,2013-02-24 04:04:00,
2013-02-23 20:09:00,48.8,35.2,30.00,WNW,290,4.5,7.2,59,0.00,,,0.00,WSDL version 420,2013-02-24 04:09:00,
2013-02-23 20:14:00,48.9,34.8,30.00,NNW,335,4.1,7.2,58,0.00,,,0.00,WSDL version 420,2013-02-24 04:14:00,
2013-02-23 20:19:00,48.9,34.8,29.97,NW,310,4.3,8.5,58,0.00,,,0.00,WSDL version 420,2013-02-24 04:19:00,
2013-02-23 20:24:00,48.9,34.3,29.97,NW,326,4.0,8.5,56,0.00,,,0.00,WSDL version 420,2013-02-24 04:24:00,
2013-02-23 20:29:00,48.9,33.9,29.97,NW,323,3.5,7.2,56,0.00,,,0.00,WSDL version 420,2013-02-24 04:29:00,
2013-02-23 20:34:00,48.9,34.3,29.97,NW,307,4.3,8.7,57,0.00,,,0.00,WSDL version 420,2013-02-24 04:34:00,
2013-02-23 20:39:00,48.9,34.0,29.97,NW,310,4.2,9.8,55,0.00,,,0.00,WSDL version 420,2013-02-24 04:39:00,
2013-02-23 20:44:00,49.0,33.3,29.97,NW,321,5.3,9.8,54,0.00,,,0.00,WSDL version 420,2013-02-24 04:44:00,
2013-02-23 20:49:00,48.9,33.0,30.00,NNW,333,5.2,12.3,54,0.00,,,0.00,WSDL version 420,2013-02-24 04:49:00,
2013-02-23 20:54:00,48.9,33.0,30.00,NNW,348,3.2,12.3,54,0.00,,,0.00,WSDL version 420,2013-02-24 04:54:00,
2013-02-23 20:59:00,48.9,33.1,30.00,NNW,340,3.9,7.8,54,0.00,,,0.00,WSDL version 420,2013-02-24 04:59:00,
2013-02-23 21:04:00,48.7,33.4,30.00,NW,318,4.7,7.8,56,0.00,,,0.00,WSDL version 420,2013-02-24 05:04:00,
2013-02-23 21:09:00,48.7,33.8,30.00,NNW,332,3.5,8.1,56,0.00,,,0.00,WSDL version 420,2013-02-24 05:09:00,
2013-02-23 21:14:00,48.7,33.3,30.00,NNW,338,3.6,9.6,55,0.00,,,0.00,WSDL version 420,2013-02-24 05:14:00,
2013-02-23 21:19:00,48.6,33.4,30.00,NNW,343,4.4,9.6,55,0.00,,,0.00,WSDL version 420,2013-02-24 05:19:00,
2013-02-23 21:24:00,48.6,33.1,30.00,NNW,338,4.0,8.7,55,0.00,,,0.00,WSDL version 420,2013-02-24 05:24:00,
2013-02-23 21:29:00,48.4,33.2,30.00,NNW,338,4.5,7.4,56,0.00,,,0.00,WSDL version 420,2013-02-24 05:29:00,
2013-02-23 21:34:00,48.3,33.4,30.00,NW,321,4.1,8.7,56,0.00,,,0.00,WSDL version 420,2013-02-24 05:34:00,
2013-02-23 21:39:00,48.2,33.3,30.00,NW,321,3.2,8.7,56,0.00,,,0.00,WSDL version 420,2013-02-24 05:39:00,
2013-02-23 21:44:00,48.2,33.3,30.00,North,354,4.6,6.9,56,0.00,,,0.00,WSDL version 420,2013-02-24 05:44:00,
2013-02-23 21:49:00,48.2,33.1,30.00,NW,325,2.6,6.9,56,0.00,,,0.00,WSDL version 420,2013-02-24 05:49:00,
2013-02-23 21:54:00,48.0,33.5,30.00,NNW,334,3.3,9.6,57,0.00,,,0.00,WSDL version 420,2013-02-24 05:54:00,
2013-02-23 21:59:00,47.9,33.7,30.00,NW,308,1.9,9.6,57,0.00,,,0.00,WSDL version 420,2013-02-24 05:59:00,
2013-02-23 22:04:00,47.8,33.6,30.03,WNW,295,3.2,7.2,58,0.00,,,0.00,WSDL version 420,2013-02-24 06:04:00,
2013-02-23 22:09:00,47.7,33.4,30.03,NW,307,3.6,8.7,57,0.00,,,0.00,WSDL version 420,2013-02-24 06:09:00,
2013-02-23 22:14:00,47.5,33.0,30.03,WNW,303,2.1,8.7,57,0.00,,,0.00,WSDL version 420,2013-02-24 06:14:00,
2013-02-23 22:20:00,47.3,32.9,30.03,SE,143,1.5,6.0,57,0.00,,,0.00,WSDL version 420,2013-02-24 06:20:00,
2013-02-23 22:25:00,47.2,33.1,30.03,NNW,343,3.9,7.2,58,0.00,,,0.00,WSDL version 420,2013-02-24 06:25:00,
2013-02-23 22:30:00,47.1,33.1,30.03,NW,318,2.4,7.2,58,0.00,,,0.00,WSDL version 420,2013-02-24 06:30:00,
2013-02-23 22:35:00,47.0,33.0,30.03,NW,313,3.4,7.2,58,0.00,,,0.00,WSDL version 420,2013-02-24 06:35:00,
2013-02-23 22:40:00,46.9,32.9,30.03,NNW,329,2.7,7.2,58,0.00,,,0.00,WSDL version 420,2013-02-24 06:40:00,
2013-02-23 22:45:00,46.8,32.8,30.03,NW,310,2.6,6.3,58,0.00,,,0.00,WSDL version 420,2013-02-24 06:45:00,
2013-02-23 22:50:00,46.8,33.2,30.03,NNW,338,2.9,6.7,59,0.00,,,0.00,WSDL version 420,2013-02-24 06:50:00,
2013-02-23 22:55:00,46.7,33.2,30.03,NNW,345,3.2,6.7,59,0.00,,,0.00,WSDL version 420,2013-02-24 06:55:00,
2013-02-23 23:00:00,46.8,33.2,30.03,NNW,338,3.0,6.5,59,0.00,,,0.00,WSDL version 420,2013-02-24 07:00:00,
2013-02-23 23:05:00,46.7,33.2,30.03,NW,320,3.4,5.6,59,0.00,,,0.00,WSDL version 420,2013-02-24 07:05:00,
2013-02-23 23:10:00,46.7,33.1,30.03,North,350,2.0,5.6,59,0.00,,,0.00,WSDL version 420,2013-02-24 07:10:00,
2013-02-23 23:15:00,46.4,32.9,30.03,NE,45,1.3,3.6,59,0.00,,,0.00,WSDL version 420,2013-02-24 07:15:00,
2013-02-23 23:20:00,46.3,33.0,30.03,NNW,338,1.9,3.8,60,0.00,,,0.00,WSDL version 420,2013-02-24 07:20:00,
2013-02-23 23:25:00,46.2,33.1,30.03,NW,318,0.8,3.8,60,0.00,,,0.00,WSDL version 420,2013-02-24 07:25:00,
2013-02-23 23:30:00,46.1,33.2,30.03,North,353,2.8,3.6,61,0.00,,,0.00,WSDL version 420,2013-02-24 07:30:00,
2013-02-23 23:35:00,46.2,33.5,30.03,NNW,332,2.9,3.8,61,0.00,,,0.00,WSDL version 420,2013-02-24 07:35:00,
2013-02-23 23:40:00,46.2,33.3,30.03,NNW,335,2.3,3.8,60,0.00,,,0.00,WSDL version 420,2013-02-24 07:40:00,
2013-02-23 23:45:00,46.1,33.0,30.03,West,275,0.2,3.6,60,0.00,,,0.00,WSDL version 420,2013-02-24 07:45:00,
2013-02-23 23:50:00,45.8,32.8,30.03,NW,304,2.8,4.5,61,0.00,,,0.00,WSDL version 420,2013-02-24 07:50:00,
2013-02-23 23:55:00,46.0,34.1,30.03,NNW,333,2.3,7.4,63,0.00,,,0.00,WSDL version 420,2013-02-24 07:55:00,